Date_and_time,latitude,longitude,wind_speed,RelWindDirFrom,WindDirFrom,air_pressure,air_temperature,relative_humidity,Temp,platform_speed_wrt_ground,air_pressure_at_mean_sea_level,platform_orientation
2018-11-16 00:00,50.630455,-96.9807666666667,11.8,18.2,311,988.77,-6.2,86,0.79,0.0,1017.22,270.0
2018-11-16 00:00,50.630455,-96.9807666666667,10.2,10.2,300,988.92,-6.3,86,0.79,0.0,1017.39,0.0
2018-11-16 00:10,50.630455,-96.9807683333333,11.6,16.6,311,988.90,-6.3,86,0.79,0.0,1017.39,0.0
2018-11-16 00:20,50.6304516666667,-96.9807716666667,10.3,16.1,318,989.05,-6.4,87,0.79,0.0,1017.54,0.0
2018-11-16 00:30,50.6304533333333,-96.9807733333333,10.4,15.7,310,989.10,-6.5,87,0.78,0.0,1017.61,0.0
2018-11-16 00:40,50.630455,-96.9807716666667,10.9,15.2,310,989.19,-6.6,86,0.78,0.0,1017.71,0.0
2018-11-16 00:50,50.630455,-96.9807716666667,11.2,15.8,310,989.22,-6.7,86,0.78,0.0,1017.76,0.0
2018-11-16 01:00,50.630455,-96.9807716666667,11.2,17.6,311,989.31,-6.8,86,0.78,0.0,1017.87,270.0
2018-11-16 01:10,50.6304566666667,-96.9807716666667,10.6,17.1,307,989.41,-7.0,86,0.78,0.0,1017.99,270.0
2018-11-16 01:20,50.6304583333333,-96.9807716666667,9.9,16.0,311,989.55,-7.0,87,0.79,0.0,1018.14,270.0
2018-11-16 01:30,50.6304616666667,-96.9807733333333,10.9,19.5,311,989.48,-7.1,87,0.79,0.0,1018.08,270.0
2018-11-16 01:40,50.6304583333333,-96.9807633333333,10.5,16.3,313,989.51,-7.2,87,0.79,0.0,1018.13,270.0
2018-11-16 01:50,50.6304583333333,-96.980765,9.4,14.4,310,989.49,-7.2,87,0.79,0.0,1018.12,270.0
2018-11-16 02:00,50.6304583333333,-96.9807633333333,8.9,13.5,310,989.52,-7.3,87,0.79,0.0,1018.16,360.0
2018-11-16 02:10,50.630455,-96.98076,9.3,15.6,315,989.56,-7.4,87,0.78,0.0,1018.20,360.0
2018-11-16 02:20,50.6304616666667,-96.9807483333333,8.5,14.0,319,989.67,-7.4,87,0.78,0.0,1018.32,360.0
2018-11-16 02:30,50.6304666666667,-96.9807683333333,9.1,16.1,319,989.73,-7.4,88,0.79,0.0,1018.39,360.0
2018-11-16 02:40,50.630465,-96.9807633333333,9.2,14.4,318,989.79,-7.5,87,0.79,0.0,1018.46,360.0
2018-11-16 02:50,50.6304616666667,-96.98076,9.5,14.1,322,989.82,-7.6,87,0.78,0.0,1018.51,360.0
2018-11-16 03:00,50.63046,-96.9807583333333,9.3,13.9,322,989.80,-7.6,87,0.77,0.0,1018.49,12.6
2018-11-16 03:10,50.63046,-96.9807583333333,11.0,16.6,322,989.71,-7.6,86,0.75,0.0,1018.40,12.6
2018-11-16 03:20,50.6304616666667,-96.9807583333333,8.8,13.4,317,989.87,-7.7,87,0.76,0.0,1018.58,12.6
2018-11-16 03:30,50.6304616666667,-96.9807583333333,11.5,17.6,322,989.79,-7.8,85,0.76,0.0,1018.51,12.6
2018-11-16 03:40,50.6304616666667,-96.98076,9.1,13.9,321,989.92,-7.8,86,0.75,0.0,1018.64,12.6
2018-11-16 03:50,50.6304616666667,-96.9807616666667,10.6,17.2,318,989.85,-7.9,86,0.76,0.0,1018.58,12.6
2018-11-16 04:00,50.6304616666667,-96.9807616666667,9.9,16.0,320,989.85,-8.0,85,0.75,0.0,1018.59,12.6
2018-11-16 04:10,50.63046,-96.9807616666667,11.1,16.1,325,989.81,-8.1,85,0.75,0.0,1018.55,12.6
2018-11-16 04:20,50.6304516666667,-96.980765,10.2,15.7,327,989.88,-8.1,85,0.75,0.0,1018.63,12.6
2018-11-16 04:30,50.63045,-96.9807683333333,9.7,14.2,328,989.94,-8.2,85,0.75,0.0,1018.70,12.6
2018-11-16 04:40,50.63045,-96.98077,7.3,10.1,318,990.01,-8.3,88,0.75,0.0,1018.78,12.6
2018-11-16 04:50,50.6304483333333,-96.980765,6.3,10.6,323,989.95,-8.3,89,0.75,0.0,1018.72,12.6
2018-11-16 05:00,50.63045,-96.9807666666667,6.6,9.6,311,989.89,-8.4,87,0.75,0.0,1018.67,142.0
2018-11-16 05:10,50.63045,-96.9807666666667,7.6,11.0,306,989.89,-8.5,86,0.75,0.0,1018.68,142.0
2018-11-16 05:20,50.63045,-96.980765,6.9,9.6,305,989.95,-8.7,85,0.76,0.0,1018.75,142.0
2018-11-16 05:30,50.63045,-96.980765,6.7,11.2,307,990.00,-8.7,86,0.76,0.0,1018.80,142.0
2018-11-16 05:40,50.63045,-96.980765,7.4,10.2,310,989.98,-8.8,88,0.76,0.0,1018.80,142.0
2018-11-16 05:50,50.6304516666667,-96.980765,6.7,10.2,310,990.14,-8.9,91,0.76,0.0,1018.98,142.0
2018-11-16 06:00,50.63045,-96.980765,7.2,10.5,323,990.21,-9.0,93,0.76,0.0,1019.06,228.3
2018-11-16 06:10,50.6304516666667,-96.980765,9.0,14.4,340,990.18,-9.0,93,0.75,0.0,1019.02,228.3
2018-11-16 06:20,50.6304516666667,-96.980765,10.6,15.0,342,990.28,-9.2,88,0.75,0.0,1019.14,228.3
2018-11-16 06:30,50.63045,-96.9807666666667,11.2,15.1,341,990.42,-9.3,87,0.75,0.0,1019.30,228.3
2018-11-16 06:40,50.6304366666667,-96.980765,9.8,15.7,343,990.58,-9.4,87,0.75,0.0,1019.46,228.3
2018-11-16 06:50,50.6304433333333,-96.9807683333333,10.0,12.9,348,990.55,-9.5,87,0.75,0.0,1019.45,228.3
2018-11-16 07:00,50.6304383333333,-96.9807683333333,9.0,11.9,341,990.58,-9.6,88,0.77,0.0,1019.49,360.0
2018-11-16 07:10,50.6304083333333,-96.9807583333333,8.7,11.9,336,990.65,-9.7,89,0.78,0.0,1019.58,360.0
2018-11-16 07:20,50.6304416666667,-96.9807683333333,11.4,15.6,345,990.63,-9.8,87,0.79,0.0,1019.57,360.0
2018-11-16 07:30,50.630445,-96.9807683333333,11.2,15.5,344,990.63,-9.8,85,0.80,0.0,1019.57,360.0
2018-11-16 07:40,50.6304433333333,-96.98077,9.4,14.4,338,990.82,-9.9,84,0.81,0.0,1019.78,360.0
2018-11-16 07:50,50.6304466666667,-96.98077,10.4,14.5,339,990.75,-10.0,83,0.82,0.0,1019.72,360.0
2018-11-16 08:00,50.6304466666667,-96.98077,9.8,14.1,343,990.83,-10.1,83,0.82,0.0,1019.80,360.0
2018-11-16 08:10,50.6304466666667,-96.9807683333333,11.3,16.2,342,990.73,-10.1,83,0.81,0.0,1019.71,360.0
2018-11-16 08:20,50.6304483333333,-96.9807683333333,9.3,14.2,331,990.80,-10.2,82,0.79,0.0,1019.79,360.0
2018-11-16 08:30,50.63045,-96.98077,10.5,15.9,331,990.85,-10.2,80,0.78,0.0,1019.85,360.0
2018-11-16 08:40,50.63045,-96.9807716666667,9.8,14.2,332,990.90,-10.2,80,0.78,0.0,1019.91,360.0
2018-11-16 08:50,50.6304516666667,-96.98077,10.7,17.2,333,990.95,-10.2,80,0.76,0.0,1019.97,360.0
2018-11-16 09:00,50.630435,-96.9807833333333,10.9,15.1,340,991.01,-10.1,79,0.76,0.0,1020.03,211.1
2018-11-16 09:10,50.6304533333333,-96.9807566666667,9.5,13.1,336,991.06,-10.2,80,0.76,0.0,1020.09,211.1
2018-11-16 09:20,50.6304516666667,-96.98075,9.2,13.7,330,991.14,-10.2,80,0.76,0.0,1020.18,211.1
2018-11-16 09:30,50.6304533333333,-96.9807516666667,10.8,15.9,333,991.17,-10.3,80,0.76,0.0,1020.22,211.1
2018-11-16 09:40,50.6304533333333,-96.980755,8.4,13.6,331,991.32,-10.3,81,0.76,0.0,1020.37,211.1
2018-11-16 09:50,50.630455,-96.9807566666667,8.6,12.6,331,991.39,-10.3,81,0.75,0.0,1020.45,211.1
2018-11-16 10:00,50.630455,-96.9807566666667,11.0,16.8,341,991.34,-10.3,82,0.74,0.0,1020.40,41.3
2018-11-16 10:10,50.630455,-96.9807583333333,12.1,16.7,340,991.19,-10.2,82,0.73,0.0,1020.24,41.3
2018-11-16 10:20,50.6304566666667,-96.98076,9.5,13.5,335,991.33,-10.2,83,0.73,0.0,1020.39,41.3
2018-11-16 10:30,50.6304566666667,-96.9807616666667,9.9,16.2,336,991.43,-10.3,82,0.73,0.0,1020.50,41.3
2018-11-16 10:40,50.6304666666667,-96.980795,12.1,17.2,342,991.45,-10.3,82,0.73,0.0,1020.51,41.3
2018-11-16 10:50,50.6304516666667,-96.98078,12.4,18.1,345,991.56,-10.3,81,0.73,0.0,1020.63,41.3
2018-11-16 11:00,50.6304583333333,-96.9807716666667,12.1,17.8,339,991.65,-10.4,79,0.73,0.0,1020.73,345.5
2018-11-16 11:10,50.63046,-96.9807683333333,13.2,20.3,343,991.69,-10.4,80,0.74,0.0,1020.78,345.5
2018-11-16 11:20,50.63046,-96.980765,12.1,16.3,340,991.83,-10.4,80,0.74,0.0,1020.93,345.5
2018-11-16 11:30,50.63046,-96.980765,13.5,19.1,341,991.89,-10.5,79,0.75,0.0,1020.99,345.5
2018-11-16 11:40,50.6304716666667,-96.980765,11.5,16.3,338,992.14,-10.4,79,0.77,0.0,1021.24,345.5
2018-11-16 11:50,50.630465,-96.980765,11.9,15.8,333,992.26,-10.6,78,0.78,0.0,1021.37,345.5
2018-11-16 12:00,50.6304633333333,-96.9807683333333,10.6,16.0,325,992.47,-10.6,78,0.78,0.0,1021.59,8.4
2018-11-16 12:10,50.6304616666667,-96.9807716666667,9.9,14.2,326,992.59,-10.6,78,0.79,0.0,1021.71,8.4
2018-11-16 12:20,50.63046,-96.98077,11.0,16.5,330,992.60,-10.5,79,0.80,0.0,1021.72,8.4
2018-11-16 12:30,50.63046,-96.98077,9.5,14.7,328,992.67,-10.5,80,0.80,0.0,1021.79,8.4
2018-11-16 12:40,50.6304433333333,-96.9807633333333,11.0,16.6,330,992.60,-10.5,82,0.80,0.0,1021.71,8.4
2018-11-16 12:50,50.63046,-96.98077,10.4,15.5,332,992.69,-10.5,83,0.79,0.0,1021.82,8.4
2018-11-16 13:00,50.6304566666667,-96.9807683333333,10.5,15.0,330,992.68,-10.5,84,0.79,0.0,1021.81,270.0
2018-11-16 13:10,50.6304583333333,-96.9807683333333,10.9,15.6,331,992.69,-10.6,84,0.78,0.0,1021.82,270.0
2018-11-16 13:20,50.6304616666667,-96.9807666666667,10.7,15.2,334,992.69,-10.5,85,0.78,0.0,1021.83,270.0
2018-11-16 13:30,50.6304616666667,-96.9807833333333,11.2,15.8,332,992.72,-10.5,87,0.77,0.0,1021.85,270.0
2018-11-16 13:40,50.630455,-96.9807766666667,10.6,15.2,326,993.07,-10.6,87,0.77,0.0,1022.22,270.0
2018-11-16 13:50,50.6304533333333,-96.9807733333333,10.9,16.3,324,993.37,-10.8,87,0.76,0.0,1022.55,270.0
2018-11-16 14:00,50.6304533333333,-96.9807733333333,10.2,16.9,325,993.63,-11.0,87,0.76,0.0,1022.82,360.0
2018-11-16 14:10,50.630445,-96.9807716666667,10.4,14.6,321,993.84,-11.1,86,0.76,0.0,1023.05,360.0
2018-11-16 14:20,50.63044,-96.9807716666667,9.4,13.9,323,994.15,-11.3,86,0.77,0.0,1023.37,360.0
2018-11-16 14:30,50.6304516666667,-96.98077,9.7,12.7,321,994.32,-11.4,86,0.80,0.0,1023.55,360.0
2018-11-16 14:40,50.6304533333333,-96.9807683333333,9.6,15.3,324,994.55,-11.5,86,0.82,0.0,1023.79,360.0
2018-11-16 14:50,50.6304533333333,-96.98077,10.5,14.4,319,994.58,-11.6,86,0.83,0.0,1023.83,360.0
2018-11-16 15:00,50.630455,-96.9807683333333,9.6,14.2,322,994.71,-11.7,86,0.84,0.0,1023.97,360.0
2018-11-16 15:10,50.630455,-96.98077,10.4,15.3,326,994.75,-11.8,86,0.83,0.0,1024.01,360.0
2018-11-16 15:20,50.6304533333333,-96.98077,10.3,15.9,328,994.84,-11.8,86,0.82,0.0,1024.11,360.0
2018-11-16 15:30,50.630455,-96.98077,9.7,15.1,329,994.98,-11.7,86,0.81,0.0,1024.26,360.0
2018-11-16 15:40,50.630455,-96.98077,9.5,12.9,335,995.12,-11.5,85,0.80,0.0,1024.40,360.0
2018-11-16 15:50,50.630455,-96.98077,12.0,16.0,339,995.12,-11.3,85,0.80,0.0,1024.40,360.0
2018-11-16 16:00,50.6304533333333,-96.98077,10.8,15.0,341,995.32,-11.1,84,0.79,0.0,1024.60,0.0
2018-11-16 16:10,50.630455,-96.98077,10.0,13.8,337,995.45,-11.1,84,0.79,0.0,1024.74,0.0
2018-11-16 16:20,50.630455,-96.98077,10.3,15.5,336,995.51,-11.0,82,0.76,0.0,1024.81,0.0
2018-11-16 16:30,50.630455,-96.9807683333333,11.3,15.1,338,995.61,-11.1,82,0.75,0.0,1024.91,0.0
2018-11-16 16:40,50.630455,-96.98077,11.1,15.2,334,995.69,-11.0,81,0.75,0.0,1025.00,0.0
2018-11-16 16:50,50.630455,-96.9807683333333,12.3,16.9,350,995.77,-10.5,80,0.75,0.0,1025.06,0.0
2018-11-16 17:00,50.630455,-96.9807683333333,11.0,15.9,345,995.89,-10.3,79,0.76,0.0,1025.17,90.0
2018-11-16 17:10,50.630455,-96.9807683333333,11.8,16.1,351,995.94,-10.1,78,0.76,0.0,1025.22,90.0
2018-11-16 17:20,50.6304533333333,-96.9807633333333,12.7,16.7,355,995.98,-9.9,78,0.77,0.0,1025.24,90.0
2018-11-16 17:30,50.6304616666667,-96.9807633333333,12.1,15.0,354,996.01,-10.1,78,0.77,0.0,1025.27,90.0
2018-11-16 17:40,50.6304516666667,-96.9807583333333,11.3,15.5,345,996.00,-10.0,77,0.77,0.0,1025.24,90.0
2018-11-16 17:50,50.6304516666667,-96.9807716666667,13.1,17.1,343,996.01,-10.0,74,0.77,0.0,1025.24,90.0
2018-11-16 18:00,50.63045,-96.9807683333333,13.0,18.0,348,996.07,-9.8,74,0.77,0.0,1025.30,90.0
2018-11-16 18:10,50.6304466666667,-96.9807683333333,13.0,17.3,350,996.11,-9.6,74,0.78,0.0,1025.32,90.0
2018-11-16 18:20,50.6304483333333,-96.98077,10.9,16.6,334,996.16,-9.3,72,0.78,0.0,1025.35,90.0
2018-11-16 18:30,50.6304483333333,-96.98077,12.1,18.2,333,996.13,-9.3,71,0.78,0.0,1025.32,90.0
2018-11-16 18:40,50.6304483333333,-96.98077,13.9,21.2,349,996.19,-8.9,71,0.79,0.0,1025.33,90.0
2018-11-16 18:50,50.6304466666667,-96.9807733333333,14.3,19.2,345,996.24,-8.8,71,0.79,0.0,1025.37,90.0
2018-11-16 19:00,50.63045,-96.9807783333333,13.1,18.3,342,996.38,-8.6,70,0.80,0.0,1025.49,270.0
2018-11-16 19:10,50.6304483333333,-96.9807783333333,13.5,17.6,344,996.47,-8.3,69,0.81,0.0,1025.55,270.0
2018-11-16 19:20,50.6304566666667,-96.9807833333333,15.5,19.6,347,996.52,-8.1,68,0.81,0.0,1025.61,270.0
2018-11-16 19:30,50.6304533333333,-96.9807733333333,15.2,20.3,345,996.59,-8.0,67,0.82,0.0,1025.66,270.0
2018-11-16 19:40,50.6304566666667,-96.9807733333333,14.9,20.4,346,996.77,-7.8,67,0.83,0.0,1025.84,270.0
2018-11-16 19:50,50.6304566666667,-96.9807716666667,15.1,20.6,342,996.78,-7.9,67,0.83,0.0,1025.85,270.0
2018-11-16 20:00,50.6304583333333,-96.98077,14.2,19.3,335,996.92,-8.2,65,0.84,0.0,1026.00,360.0
2018-11-16 20:10,50.6304583333333,-96.98077,16.9,21.5,347,997.05,-8.0,66,0.85,0.0,1026.10,360.0
2018-11-16 20:20,50.6304566666667,-96.9807666666667,16.2,21.3,349,997.22,-7.9,66,0.85,0.0,1026.27,360.0
2018-11-16 20:30,50.6304583333333,-96.9807683333333,15.2,21.0,337,997.35,-7.8,64,0.86,0.0,1026.38,360.0
2018-11-16 20:40,50.6304566666667,-96.9807666666667,14.1,19.4,340,997.57,-7.7,64,0.86,0.0,1026.60,360.0
2018-11-16 20:50,50.6304583333333,-96.9807666666667,14.2,21.9,340,997.69,-7.6,63,0.86,0.0,1026.71,360.0
2018-11-16 21:00,50.6304566666667,-96.980765,14.8,20.3,344,997.82,-7.6,63,0.87,0.0,1026.82,90.0
2018-11-16 21:10,50.6304566666667,-96.980765,14.6,21.5,346,997.99,-7.6,63,0.87,0.0,1026.99,90.0
2018-11-16 21:20,50.63042,-96.9807816666667,12.1,17.5,335,998.24,-7.8,62,0.87,0.0,1027.24,90.0
2018-11-16 21:30,50.630425,-96.9807633333333,14.7,22.5,343,998.33,-7.9,63,0.88,0.0,1027.33,90.0
2018-11-16 21:40,50.6304466666667,-96.9807683333333,14.7,20.1,344,998.49,-8.0,63,0.88,0.0,1027.51,90.0
2018-11-16 21:50,50.6304483333333,-96.9807666666667,12.5,18.5,337,998.78,-8.1,62,0.89,0.0,1027.82,90.0
2018-11-16 22:00,50.63045,-96.9807666666667,12.3,18.7,334,998.92,-8.4,62,0.90,0.0,1027.99,90.0
2018-11-16 22:10,50.63045,-96.9807666666667,15.5,20.5,337,999.04,-8.7,61,0.90,0.0,1028.12,90.0
2018-11-16 22:20,50.630465,-96.9807683333333,15.1,22.2,337,999.23,-9.0,61,0.90,0.0,1028.32,90.0
2018-11-16 22:30,50.63046,-96.9807666666667,14.0,21.2,336,999.41,-9.4,63,0.91,0.0,1028.52,90.0
2018-11-16 22:40,50.6304583333333,-96.9807683333333,15.7,21.6,339,999.59,-9.5,64,0.91,0.0,1028.72,90.0
2018-11-16 22:50,50.630455,-96.9807666666667,13.9,19.1,339,999.83,-9.7,65,0.92,0.0,1028.97,90.0
2018-11-16 23:00,50.6304533333333,-96.9807633333333,13.0,18.4,338,1000.00,-9.9,66,0.92,0.0,1029.16,360.0
2018-11-16 23:10,50.6304516666667,-96.98077,12.8,17.6,341,1000.18,-10.1,67,0.93,0.0,1029.36,360.0
2018-11-16 23:20,50.6304566666667,-96.9807716666667,14.7,20.1,340,1000.32,-10.3,69,0.94,0.0,1029.52,360.0
2018-11-16 23:30,50.6304533333333,-96.9807683333333,13.1,17.6,335,1000.48,-10.7,71,0.94,0.0,1029.71,360.0
2018-11-16 23:40,50.630455,-96.9807666666667,12.5,17.3,333,1000.73,-11.0,73,0.94,0.0,1029.99,360.0
